Starlink 30043

operational
NORAD ID: 57417 Int'l Des: 2023-102 Owner: SPXS Country: US Constellation: starlink
LEOCIRCULAR

Starlink 30043について

説明を読み込み中...

リアルタイム位置

3D地球を読み込み中...

次回通過

高度履歴

Altitude vs Time

uPlot chart will show altitude changes over time

軌道要素

1 57417U 23102P 25260.00369190 -.00001437 00000-0 -91303-4 0 9992
2 57417 43.0019 112.2767 0001178 279.7276 80.3433 15.02531614120110
Epoch: Sep 17, 2025 • Age: 12 hours

現在のステータス

高度 561.3 km
速度 7.59 km/s
衛星直下点 34.64°N, 68.42°E
打ち上げ日 Jul 19, 2023
運用期間 2.1 years
タイプ internet

技術仕様

分類 Payload
質量 730.00 kg
乾燥質量 700.00 kg
総質量 730.00 kg
長さ 0.30 m
直径 4.10 m
スパン 29.00 m
形状 Box + pan
製造者 SPXS
バスタイプ Starlink V2M
フェーズステータス In Orbit
所有者/国 SPXS/US

大規模コンステレーション

Loading constellations...